Zurück zum Katalog

KUIPER-00176

AktivKommunikationLEO
NORAD 65788·PAYLOAD·🇺🇸 United States

Gestartet Sep 25, 2025 von Cape Canaveral Space Force Station

Loading…

Nächste Überflüge (nächste 24 Stunden)

TLE

AktuellSource: CelesTrak SupGP

Epoche: Sep 14, 2026, 20:12 UTC

1 65788C 25217AC  26257.84208333  .00000075  00000+0  98007-5 0  2571
2 65788  51.8989 286.6645 0000624  45.6501 355.6809 14.79927601    19

Verfolge KUIPER-00176 in Echtzeit mit AllMySat

Download on the App Store